Simultaneous Nadir Overpasses (SNOs) Predictions

Prediction of SNOs between METOP-B and TERRA Satellite Orbit:

Table of predicted SNOs for the next 14.0 days since TLE Epoch: 6/13/2020
Index Date (METOP-B) Time (METOP-B) Lat,Lon (METOP-B) SZA (METOP-B ) Date (TERRA) Time (TERRA) Lat,Lon (TERRA) SZA (TERRA ) Distance(km) Time Diff (sec)
1 06/13/2020 09:02:22 -81.32, -88.14 118.98 06/13/2020 09:02:51 -81.31, -88.18 118.97 1.09 29
2 06/13/2020 09:53:01 81.33, 79.74 61.09 06/13/2020 09:52:17 81.32, 79.61 61.05 2.18 44
3 06/16/2020 04:36:43 -81.32, -21.54 119.09 06/16/2020 04:37:06 -81.32, -21.53 119.08 0.29 23
4 06/16/2020 05:27:22 81.33, 146.30 60.98 06/16/2020 05:26:32 81.33, 146.23 60.94 1.23 50
5 06/19/2020 00:11:04 -81.32, 44.66 119.20 06/19/2020 00:11:21 -81.31, 44.73 119.18 1.39 17
6 06/19/2020 01:01:43 81.32,-147.53 60.87 06/19/2020 01:00:47 81.32,-147.54 60.83 0.66 56
7 06/21/2020 19:45:25 -81.32, 111.23 119.21 06/21/2020 19:45:36 -81.32, 111.36 119.18 2.33 11
8 06/21/2020 20:36:04 81.33, -80.99 60.86 06/21/2020 20:35:02 81.33, -80.94 60.83 0.73 62
9 06/24/2020 15:19:46 -81.32, 177.78 119.16 06/24/2020 15:19:52 -81.31, 177.60 119.19 3.23 6




NCC Satellite Simultaneous Nadir Overpasses (SNOs) Prediction Service
